This is the latest recevied weather packets stored in our database for station/object K3TLB-13. If no packets are shown the sender has not sent any weather packets the latest 10 day(s).
| Time | Temp. | Humidity | Pressure | Rain* | Wind** | Luminosity | Snow |
|---|---|---|---|---|---|---|---|
| 1778253832 | 16.11° C | 44% | 1014.4 hPa | 0 mm | - | - | - |
| 1778253532 | 16.11° C | 41% | 1014.5 hPa | 0 mm | - | - | - |
| 1778253232 | 15.56° C | 43% | 1014.4 hPa | 0 mm | - | - | - |
| 1778252932 | 15.56° C | 43% | 1014.6 hPa | 0 mm | - | - | - |
| 1778252632 | 15.56° C | 42% | 1014.5 hPa | 0 mm | - | - | - |
| 1778252332 | 15.56° C | 49% | 1014.5 hPa | 0 mm | - | - | - |
| 1778252223 | 15° C | 44% | 1014.5 hPa | 0 mm | - | - | - |
| 1778252032 | 15° C | 44% | 1014.5 hPa | 0 mm | - | - | - |
| 1778251732 | 15° C | 45% | 1014.6 hPa | 0 mm | - | - | - |
| 1778251432 | 15° C | 43% | 1014.7 hPa | 0 mm | - | - | - |
| 1778251132 | 15° C | 44% | 1014.7 hPa | 0 mm | - | - | - |
| 1778250867 | 14.44° C | 43% | 1014.8 hPa | 0 mm | - | - | - |
| 1778250832 | 14.44° C | 43% | 1014.8 hPa | 0 mm | - | - | - |
| 1778250596 | 15° C | 44% | 1014.8 hPa | 0 mm | - | - | - |
| 1778250532 | 15° C | 44% | 1014.8 hPa | 0 mm | - | - | - |
| 1778250319 | 15° C | 43% | 1014.7 hPa | 0 mm | - | - | - |
| 1778250232 | 15° C | 43% | 1014.7 hPa | 0 mm | - | - | - |
| 1778250042 | 14.44° C | 44% | 1014.8 hPa | 0 mm | - | - | - |
| 1778249932 | 14.44° C | 44% | 1014.8 hPa | 0 mm | - | - | - |
| 1778249632 | 14.44° C | 46% | 1014.8 hPa | 0 mm | - | - | - |
| 1778249332 | 14.44° C | 47% | 1014.7 hPa | 0 mm | - | - | - |
| 1778249033 | 13.89° C | 49% | 1014.7 hPa | 0 mm | - | - | - |
| 1778248732 | 13.89° C | 46% | 1014.9 hPa | 0 mm | - | - | - |
| 1778248432 | 13.89° C | 48% | 1014.8 hPa | 0 mm | - | - | - |
| 1778248132 | 13.89° C | 50% | 1014.9 hPa | 0 mm | - | - | - |
* Rain latest hour (hover to see other rain measurements)
** Current wind speed in m/s (hover to see current wind gust speed)